Fort Lauderdale, FL

4:04 PM EST on December 09, 2019 (GMT -0500)
Fort Lauderdale Executive

Weather History for KFXE - October, 2019

Change the Weather History Date:

Tuesday, October 8, 2019

  Actual Average Record
Temperature  
Mean Temperature 78 °F -  
Max Temperature 84 °F 88 °F 94 °F (1981)
Min Temperature 73 °F 71 °F 64 °F (1979)
Cooling Degree Days 14    
Growing Degree Days 28 (Base 50)    
Moisture  
Dew Point 75 °F    
Average Humidity 91    
Maximum Humidity 100    
Minimum Humidity 77    
Precipitation  
Precipitation 1.62 in - - ()
Sea Level Pressure  
Sea Level Pressure 29.88 in    
Wind  
Wind Speed 5 mph ()    
Max Wind Speed 16 mph    
Max Gust Speed 31 mph    
Visibility 7.9 miles    
Events Rain , Thunderstorm    
Averages and records for this station are not official NWS values.
T = Trace of Precipitation, MM = Missing Value Source: Averaged Metar Reports

Daily Weather History Graph

Daily Weather History Graph

Search for Another Location

Airport or City:

Astronomy

Oct. 08, 2019 Rise Set
Actual Time 7:16 AM EDT 6:59 PM EDT
Civil Twilight 6:53 AM EDT 7:23 PM EDT
Nautical Twilight 6:26 AM EDT 7:49 PM EDT
Astronomical Twilight 5:59 AM EDT 8:16 PM EDT
Moon 4:23 PM EDT (10/8) 2:41 AM EDT (10/8)
Length of Visible Light 12h 30m
Length of Day
11h 43m
Waxing Gibbous, 77% of the Moon is Illuminated
Oct 8
Waxing Gibbous
Oct 13
Full
Oct 21
Last Quarter
Oct 27
New
Nov 4
First Quarter

Hourly Weather History & Observations

Time (EDT) Temp. Heat Index Dew Point Humidity Pressure Visibility Wind Dir Wind Speed Gust Speed Precip Events Conditions
12:53 AM 75.0 °F - 73.9 °F 96% 29.85 in 10.0 mi SSW 5.8 mph - 0.00 in   Partly Cloudy
1:13 AM 75.0 °F - 73.9 °F 96% 29.85 in 10.0 mi South 4.6 mph - N/A   Partly Cloudy
1:53 AM 75.0 °F - 73.9 °F 96% 29.85 in 10.0 mi SW 4.6 mph - N/A   Partly Cloudy
2:53 AM 75.0 °F - 73.9 °F 96% 29.84 in 10.0 mi SSW 4.6 mph - N/A   Clear
3:53 AM 75.0 °F - 73.9 °F 96% 29.84 in 10.0 mi SW 4.6 mph - N/A   Clear
4:53 AM 75.9 °F - 73.9 °F 94% 29.86 in 10.0 mi SW 4.6 mph - N/A   Mostly Cloudy
5:53 AM 75.9 °F - 75.0 °F 97% 29.86 in 10.0 mi Calm Calm - 0.00 in   Overcast
6:53 AM 75.9 °F - 75.0 °F 97% 29.87 in 10.0 mi Calm Calm - N/A   Overcast
7:53 AM 77.0 °F - 75.0 °F 94% 29.88 in 10.0 mi Calm Calm - N/A   Mostly Cloudy
8:53 AM 78.1 °F - 75.0 °F 90% 29.89 in 10.0 mi SE 3.5 mph - 0.00 in Rain Light Rain
9:30 AM 78.1 °F - 75.9 °F 93% 29.90 in 1.8 mi SSW 15.0 mph 20.7 mph 0.13 in Rain Heavy Rain
9:37 AM 75.9 °F - 73.0 °F 91% 29.90 in 1.0 mi WSW 6.9 mph 20.7 mph 0.23 in Rain Heavy Rain
9:51 AM 75.2 °F - 73.4 °F 94% 29.90 in 0.8 mi West 4.6 mph - 0.44 in Rain Heavy Rain
9:53 AM 75.0 °F - 73.9 °F 96% 29.91 in 0.8 mi West 4.6 mph - 0.45 in Rain Heavy Rain
9:56 AM 75.0 °F - 73.9 °F 96% 29.89 in 2.0 mi Calm Calm - 0.01 in Rain Rain
9:59 AM 75.0 °F - 73.9 °F 96% 29.90 in 2.0 mi SW 3.5 mph - 0.02 in Rain Rain
10:49 AM 75.2 °F - 75.2 °F 100% 29.90 in 5.0 mi SSW 9.2 mph - 0.22 in Rain Rain
10:53 AM 75.9 °F - 75.0 °F 97% 29.90 in 5.0 mi SSW 10.4 mph - 0.23 in Rain Rain
11:53 AM 78.1 °F - 75.9 °F 93% 29.90 in 10.0 mi SW 13.8 mph - 0.00 in   Mostly Cloudy
12:53 PM 80.1 °F 85.8 °F 77.0 °F 90% 29.89 in 10.0 mi SSW 9.2 mph - N/A   Mostly Cloudy
1:11 PM 82.0 °F 90.2 °F 77.0 °F 85% 29.88 in 10.0 mi SW 11.5 mph - N/A   Mostly Cloudy
1:53 PM 81.0 °F 88.6 °F 78.1 °F 91% 29.87 in 10.0 mi SW 9.2 mph - 0.12 in Rain Light Rain
2:08 PM 84.0 °F 93.7 °F 77.0 °F 79% 29.86 in 10.0 mi SW 15.0 mph - 0.00 in Thunderstorm Mostly Cloudy
2:53 PM 80.1 °F 85.1 °F 75.0 °F 85% 29.86 in 7.0 mi SW 16.1 mph 31.1 mph 0.03 in Rain , Thunderstorm Light Rain
2:56 PM 79.0 °F - 75.0 °F 88% 29.85 in 2.5 mi SW 11.5 mph 31.1 mph 0.07 in Rain , Thunderstorm Heavy Rain
3:04 PM 78.1 °F - 75.9 °F 93% 29.84 in 1.2 mi SSW 5.8 mph - 0.15 in Rain , Thunderstorm Heavy Rain
3:11 PM 80.1 °F 86.4 °F 78.1 °F 94% 29.86 in 10.0 mi Variable 5.8 mph - 0.16 in Rain , Thunderstorm Light Rain
3:18 PM 81.0 °F 87.9 °F 77.0 °F 88% 29.87 in 10.0 mi NNW 15.0 mph 20.7 mph 0.16 in   Overcast
3:53 PM 73.9 °F - 73.0 °F 97% 29.88 in 10.0 mi WNW 12.7 mph - 0.73 in Rain Heavy Rain
4:06 PM 77.0 °F - 75.0 °F 94% 29.86 in 10.0 mi NNW 4.6 mph - 0.06 in Rain Light Rain
4:53 PM 82.0 °F 88.6 °F 75.0 °F 79% 29.86 in 10.0 mi Variable 3.5 mph - 0.06 in   Scattered Clouds
5:53 PM 82.9 °F 90.2 °F 75.0 °F 77% 29.86 in 10.0 mi Calm Calm - N/A   Mostly Cloudy
6:53 PM 82.0 °F 88.6 °F 75.0 °F 79% 29.87 in 10.0 mi SSW 8.1 mph - N/A   Overcast
7:53 PM 80.1 °F 84.5 °F 73.9 °F 81% 29.89 in 10.0 mi SSW 5.8 mph - N/A   Clear
8:53 PM 79.0 °F - 75.0 °F 88% 29.92 in 10.0 mi SW 3.5 mph - N/A   Clear
9:53 PM 79.0 °F - 75.0 °F 88% 29.94 in 10.0 mi WSW 5.8 mph - N/A   Clear
10:53 PM 78.1 °F - 75.9 °F 93% 29.94 in 10.0 mi WSW 3.5 mph - N/A   Clear
11:53 PM 78.1 °F - 75.9 °F 93% 29.94 in 10.0 mi West 4.6 mph - N/A   Scattered Clouds